STARLINK-11452, 62511

Orbit data source: Space-Track

STARLINK-11452, 62511 is a payload satellite owned by SpaceX/Seattle (US) in LEO that was launched on Wed, 08 Jan 2025 UTC via an FALCON 9 launch vehicle from the Air Force Eastern Test Range (AFETR). Payload-class satellites include a variety of spacecraft equipped with specific instruments for various scientific and technological missions. These include communications satellites like Starlink; space stations such as the ISS; scientific satellites like the Hubble; Earth observation satellites from companies like Planet Labs, Umbra, and HawkEye 360; GPS; miniature CubeSats for education and research; and military/defense satellites.

Loading next visibility...
Identifier
62511, 2025-004A
Orbit
LEO
Country
Flag of USUS
Related business
Manufacturer
SpaceX/Seattle
Mission
Operational Commercial Communications
Bus & Motor
STARLINK V2MD, Unknown motor
Mass
960 kg wet, ~910 kg dry
Launch date (UTC)
2025-01-08 (2 years ago)
Launch vehicle
FALCON 9
Launch site
Air Force Eastern Test Range (AFETR)
Object type
Payload
Rocket body
Debris
Shape & HBR
Box + 2 Pan, 18.1 m
Radar Cross Section
36.964 m², Large (>1 m²)

Expand to show TLE details & history
Last TLE update: 11 hours ago

TLE from 11 hours ago
0 STARLINK-11452
1 62511U 25004A   26254.76464123  .00179539  00000-0  13735-2 0  9993
2 62511  43.0003  29.1020 0001593 277.5368  82.5318 15.70825073 97390
Epoch: 2026-09-11T18:21Z
TLE epoch observation values (Epoch: 2026-09-11T18:21:05.002Z)
Latitude
-0.00005°
Longitude
123.04779°
Altitude
356.17 km
Speed
7.697 km/s
True Right ascension
01h 56m 24s
True Declination
0° 00' 00"
Sunlit
Object was in full shadow at epoch
Visualization orbit readout
Latitude
Unknown
Longitude
Unknown
Altitude
Unknown
Speed
Unknown
Apparent Right ascension
Unknown
Apparent Declination
Unknown
Sunlit
N/A
Visualization observer readout
Local Sidereal Time
22:11:58
Azimuth
Unknown
Elevation
Unknown
Doppler factor
Unknown
Orbital elements
Apogee altitude
359.592 km
Perigee altitude
357.446 km
Semi-major axis
6,736.656 km
Eccentricity
0.00016
Inclination
43.0003°
RAAN
29.102°
Arg. of periapsis
277.5368°
True anomaly
82.5499°
Mean anomaly
82.5318°
Eccentric anomaly
82.54085°
Mean motion
3.92533 °/min
Orbital period
91.71 mins
BSTAR
0.0013735
Loading maneuver chart data...
Computing Atmospheric mass density...
Loading historical data...
Loading historical data...
Loading historical data...
Loading historical data...
Loading historical data...
Loading historical data...
Loading historical data...

Documentation

Showing up to 5 results
|